Theta_e
355 349 348 351 349 346 349 351 359 358 351 349 343 342 342 340 338 337 338 338 340 337
354 354 351 355 358 353 360 356 358 353 348 345 345 344 342 338 337 335 337 334 331 327
354 353 355 356 356 357 353 355 354 353 348 344 344 343 344 340 338 336 331 329 325 324
353 353 355 355 354 353 355 355 353 349 346 342 341 342 340 338 335 331 327 325 325 321
354 353 355 350 351 354 353 352 348 346 343 342 339 338 335 328 326 323 322 321 320 317
352 353 351 348 354 354 351 349 347 344 341 336 334 331 328 322 319 320 320 318 317 316
350 354 347 350 354 353 350 347 343 339 335 331 328 323 319 318 321 320 318 316 316 315
352 351 348 349 350 348 345 339 335 331 328 325 320 317 320 321 318 317 316 316 314 313
340 339 338 340 341 339 335 332 328 326 323 321 316 304 308 316 318 317 316 314 313 312
332 331 329 331 332 330 328 326 325 324 321 317 315 302 304 308 317 316 315 315 313 311
326 324 324 324 326 326 324 323 322 320 317 315 311 301 301 305 317 315 314 313 313 312
320 320 320 324 322 322 320 318 318 315 315 312 310 299 300 308 314 312 311 310 309 309
317 316 317 319 321 320 319 314 314 313 312 307 308 297 299 307 311 310 307 306 302 293
314 312 314 315 320 317 315 313 311 308 310 310 308 304 296 297 310 308 307 306 303 299
Wind_Speed
20 14 12 12 11 11 11 11 14 11 15 17 16 13 13 10 9 8 5 5 6 1
18 17 15 14 11 12 10 12 17 19 17 17 15 15 15 10 7 4 6 5 6 4
19 18 14 14 14 16 16 18 19 19 19 17 15 12 11 9 7 7 5 7 7 4
17 19 17 15 15 18 19 19 20 20 19 16 14 11 9 8 8 8 7 8 8 4
19 20 15 16 19 20 20 20 19 18 17 15 12 12 11 11 10 9 8 8 8 5
18 19 17 18 20 20 21 20 18 17 15 14 14 13 12 12 10 10 9 7 7 5
19 18 18 19 18 20 20 19 17 16 15 15 15 15 14 13 10 11 9 8 7 6
17 18 19 17 18 19 18 17 17 17 16 15 14 11 14 13 12 12 11 9 8 8
16 18 16 16 17 18 17 18 18 17 16 16 10 13 11 13 12 12 10 9 9 9
18 19 18 18 18 19 18 18 18 17 16 14 14 12 11 11 12 11 9 8 6 5
19 18 18 18 21 20 18 18 16 17 16 16 12 12 11 11 13 11 10 8 6 6
18 18 18 20 21 20 20 19 17 14 16 17 15 11 9 10 11 11 11 8 8 6
17 17 17 19 19 18 18 19 16 17 15 16 16 8 5 6 8 10 10 9 9 14
17 18 17 16 14 17 18 18 17 16 16 16 14 9 8 11 7 8 8 7 7 7
Wind_Direction
199 191 181 175 168 166 175 160 153 143 131 139 139 144 149 155 178 176 194 195 146 158
199 199 185 180 176 166 159 140 149 148 147 148 156 161 168 179 169 144 152 110 99 116
193 190 178 177 180 136 146 152 158 159 159 159 164 170 170 159 153 132 146 129 127 112
183 185 178 172 141 150 158 159 159 161 164 163 152 164 146 150 141 144 134 111 111 130
180 177 164 144 151 159 158 157 159 162 163 156 148 146 145 135 141 141 126 115 124 137
177 170 146 149 163 164 159 158 160 161 156 152 147 145 142 128 141 136 128 130 125 140
171 154 151 153 164 161 159 155 150 156 151 146 142 139 133 138 141 124 119 119 118 115
153 153 151 153 157 153 144 148 148 145 140 139 141 137 134 143 137 126 123 119 115 78
141 139 137 137 140 141 145 144 141 138 137 141 126 105 123 141 130 125 127 124 115 117
140 139 135 136 139 141 142 140 135 136 135 119 123 103 108 115 124 127 124 124 123 133
139 136 135 134 137 139 138 134 130 129 122 118 113 98 100 108 118 117 110 104 105 99
132 131 135 137 140 141 134 131 122 116 120 122 123 114 130 130 125 117 113 102 55 98
126 128 131 132 139 136 126 118 119 119 117 114 124 101 106 143 126 131 123 124 103 57
117 116 119 121 128 122 117 114 115 110 121 123 124 110 42 3 142 142 142 139 129 97